Weather History for Kaneohe MCBH, HI

Change the Weather History Date:

Monday, April 8, 2013

  Actual Average Record
Temperature  
Mean Temperature 75 °F -  
Max Temperature 82 °F 76 °F 82 °F (2002)
Min Temperature 68 °F 68 °F 64 °F (2002)
Cooling Degree Days 10    
Growing Degree Days 25 (Base 50)    
Moisture  
Dew Point 68 °F    
Average Humidity 81    
Maximum Humidity 100    
Minimum Humidity 58    
Precipitation  
Precipitation 0.00 in - - ()
Sea Level Pressure  
Sea Level Pressure 30.08 in    
Wind  
Wind Speed 7 mph (ENE)    
Max Wind Speed 12 mph    
Max Gust Speed 16 mph    
Visibility 8 miles    
Events Rain    
Averages and records for this station are not official NWS values.
T = Trace of Precipitation, MM = Missing Value Source: NWS Daily Summary

Daily Weather History Graph

Daily Weather History Graph

Search for Another Location

Airport:

Trip Planner

Search our weather history database for the weather conditions in past years. The results will help you decide how hot, cold, wet, or windy it might be!

Date:

Astronomy

Apr. 08, 2013 Rise Set
Actual Time 6:17 AM HST 6:48 PM HST
Civil Twilight 5:54 AM HST 7:10 PM HST
Nautical Twilight 5:28 AM HST 7:37 PM HST
Astronomical Twilight 5:01 AM HST 8:03 PM HST
Moon 5:04 AM HST (4/8) 5:39 PM HST (4/8)
Length of Visible Light 13h 15m
Length of Day
12h 30m
Waning Crescent, 2% of the Moon is Illuminated
Apr 8
Waning Crescent
Apr 9
New
Apr 18
First Quarter
Apr 25
Full
May 2
Last Quarter

Hourly Weather History & Observations

Time (HST) Temp. Heat Index Dew Point Humidity Pressure Visibility Wind Dir Wind Speed Gust Speed Precip Events Conditions
12:04 AM - - - N/A% 30.13 in 6.2 mi ENE 5.8 mph - N/A   Overcast
12:11 AM 71.6 °F - 71.6 °F 100% 30.13 in 6.2 mi ENE 6.9 mph - N/A   Overcast
12:57 AM 71.6 °F - 71.1 °F 98% 30.11 in 10.0 mi ENE 4.6 mph - N/A   Overcast
1:57 AM 71.6 °F - 71.1 °F 98% 30.09 in 10.0 mi ENE 5.8 mph - N/A   Overcast
2:57 AM 69.8 °F - 68.2 °F 95% 30.07 in 10.0 mi East 8.1 mph - N/A   Mostly Cloudy
3:05 AM - - - N/A% 30.08 in 6.2 mi East 9.2 mph - N/A   Scattered Clouds
3:57 AM - - - N/A% 30.07 in 10.0 mi East 6.9 mph - N/A   Clear
4:57 AM 68.0 °F - 67.1 °F 97% 30.06 in 10.0 mi East 5.8 mph - N/A   Partly Cloudy
5:16 AM 68.0 °F - 66.2 °F 94% 30.07 in 6.2 mi East 8.1 mph - 0.00 in Rain Light Rain
5:25 AM 68.0 °F - 66.2 °F 94% 30.08 in 6.2 mi East 8.1 mph - 0.00 in Rain Light Rain
5:57 AM 68.0 °F - 66.2 °F 94% 30.06 in 10.0 mi Variable 4.6 mph - 0.00 in   Partly Cloudy
6:57 AM 71.6 °F - 68.0 °F 88% 30.08 in 10.0 mi ESE 6.9 mph - N/A   Partly Cloudy
7:31 AM 73.4 °F - 68.0 °F 83% 30.11 in 6.2 mi East 8.1 mph - N/A   Mostly Cloudy
7:43 AM 73.4 °F - 68.0 °F 83% 30.11 in 6.2 mi East 8.1 mph - N/A   Scattered Clouds
7:57 AM 73.4 °F - 68.0 °F 83% 30.10 in 10.0 mi East 8.1 mph - N/A   Scattered Clouds
8:43 AM 73.4 °F - 69.8 °F 88% 30.12 in 6.2 mi Variable 6.9 mph - N/A   Mostly Cloudy
8:57 AM 73.4 °F - 69.1 °F 86% 30.11 in 10.0 mi ENE 10.4 mph - N/A   Mostly Cloudy
9:57 AM 77.9 °F - 68.0 °F 71% 30.12 in 10.0 mi ENE 9.2 mph 16.1 mph N/A   Mostly Cloudy
10:57 AM 80.8 °F 83.5 °F 68.0 °F 65% 30.10 in 10.0 mi ENE 10.4 mph 16.1 mph N/A   Mostly Cloudy
11:57 AM 80.8 °F 83.5 °F 68.0 °F 65% 30.09 in 10.0 mi NE 9.2 mph - N/A   Mostly Cloudy
12:57 PM 82.0 °F 84.9 °F 68.0 °F 62% 30.07 in 10.0 mi ENE 9.2 mph 16.1 mph N/A   Mostly Cloudy
1:57 PM 82.0 °F 84.9 °F 68.0 °F 62% 30.04 in 10.0 mi NE 11.5 mph - N/A   Mostly Cloudy
2:04 PM 82.4 °F 84.6 °F 66.2 °F 58% 30.05 in 6.2 mi ENE 8.1 mph - N/A   Overcast
2:57 PM 82.0 °F 84.1 °F 66.0 °F 58% 30.01 in 10.0 mi ENE 8.1 mph - N/A   Overcast
3:57 PM 79.3 °F - 66.9 °F 66% 29.99 in 10.0 mi ENE 8.1 mph - N/A   Mostly Cloudy
4:57 PM 76.1 °F - 66.9 °F 73% 29.99 in 10.0 mi ENE 6.9 mph - N/A   Mostly Cloudy
5:05 PM 77.0 °F - 66.2 °F 69% 30.01 in 6.2 mi ENE 8.1 mph - N/A   Mostly Cloudy
5:57 PM 76.1 °F - 66.9 °F 73% 30.01 in 10.0 mi NE 6.9 mph - N/A   Mostly Cloudy
6:57 PM 74.7 °F - 66.0 °F 74% 30.04 in 10.0 mi ENE 4.6 mph - N/A   Mostly Cloudy
7:57 PM 74.3 °F - 69.1 °F 84% 30.05 in 10.0 mi NE 6.9 mph - N/A   Overcast
8:41 PM 75.2 °F - 69.8 °F 83% 30.08 in 6.2 mi ENE 4.6 mph - N/A   Mostly Cloudy
8:57 PM 75.2 °F - 69.1 °F 81% 30.07 in 10.0 mi NE 5.8 mph - N/A   Mostly Cloudy
9:13 PM 75.2 °F - 69.8 °F 83% 30.09 in 6.2 mi NE 6.9 mph - N/A   Mostly Cloudy
9:36 PM 75.2 °F - 69.8 °F 83% 30.10 in 6.2 mi ENE 6.9 mph - N/A   Overcast
9:47 PM 75.2 °F - 69.8 °F 83% 30.10 in 6.2 mi ENE 5.8 mph - N/A   Mostly Cloudy
9:57 PM 75.2 °F - 70.0 °F 84% 30.09 in 10.0 mi ENE 5.8 mph - N/A   Scattered Clouds
10:48 PM 75.2 °F - 71.6 °F 89% 30.10 in 6.2 mi East 8.1 mph - 0.00 in   Overcast
10:57 PM 74.8 °F - 71.1 °F 88% 30.09 in 10.0 mi ENE 6.9 mph - 0.00 in   Overcast
11:57 PM 74.7 °F - 68.0 °F 80% 30.08 in 7.0 mi ENE 6.9 mph - N/A   Overcast